Regional Weather Roundup
Issued by NWS

Home | Current Version | Previous Version | Text Only | Print | Product List | Glossary Off
Versions: 1 2 3 4 5 6 7 8 9 10 11 12 13 14 15 16 17 18 19 20 21 22 23 24 25 26 27 28 29 30 31 32 33 34 35 36 37 38 39 40 41 42 43 44 45 46 47 48 49 50

000
ASUS43 KLMK 291010
RWRKY
KENTUCKY REGIONAL WEATHER ROUNDUP
NATIONAL WEATHER SERVICE LOUISVILLE KY
600 AM EDT FRI AUG 29 2014

NOTE "FAIR" INDICATES FEW OR NO CLOUDS BELOW 12,000 FEET
WITH NO SIGNIFICANT WEATHER AND/OR OBSTRUCTIONS TO VISIBILITY.

KYZ001>023-026-027-061>063-070>075-291100-
WESTERN AND SOUTH CENTRAL KENTUCKY

CITY           SKY/WX    TMP DP  RH WIND       PRES   REMARKS
PADUCAH        CLEAR     73  70  90 E3        29.96S FOG
HENDERSON      CLEAR     70  66  88 CALM      29.97S
OWENSBORO      CLEAR     74  -3   5 E6        29.99S
HOPKINSVILLE   CLEAR     72  72 100 SE5       29.99R
BOWLING GREEN  CLEAR     71  70  96 CALM      30.01R FOG
GLASGOW        CLEAR     71  71 100 CALM      30.02R FOG
$$

KYZ024-025-028>034-038-045-046-053-291100-
NORTH CENTRAL KENTUCKY

CITY           SKY/WX    TMP DP  RH WIND       PRES   REMARKS
LOUISVILLE/SDF PTCLDY    74  68  81 SE3       30.02S
LOUISVILLE/LOU CLEAR     73  67  81 E3        30.03S
FORT KNOX      CLOUDY    72  72 100 E5        30.02S
$$

KYZ035>037-039>044-047>052-055>060-089>105-291100-
NORTHEAST KENTUCKY

CITY           SKY/WX    TMP DP  RH WIND       PRES   REMARKS
LEXINGTON      CLEAR     71  63  75 SE5       30.06R
COVINGTON      PTCLDY    67  60  78 E7        30.07S
FRANKFORT      CLEAR     68  64  87 E5        30.04S
$$

KYZ054-064>069-076>088-106>120-291100-
SOUTHEAST KENTUCKY

CITY           SKY/WX    TMP DP  RH WIND       PRES   REMARKS
JACKSON        CLEAR     67  61  81 CALM      30.08S
LONDON         CLEAR     70  66  87 CALM      30.07R
SOMERSET       CLEAR     70  68  94 CALM      30.07R
MIDDLESBORO    FOG       68  68 100 CALM      30.08S VSB 3/4
MONTICELLO     SUNNY     71  70  97 CALM      30.06S FOG
$$



USA.gov is the U.S. government's official web portal to all federal, state and local government web resources and services.